TimeCST,TemperatureF,Dew PointF,Humidity,Sea Level PressureIn,VisibilityMPH,Wind Direction,Wind SpeedMPH,Gust SpeedMPH,PrecipitationIn,Events,Conditions,WindDirDegrees,DateUTC
12:53 AM,61.0,48.0,62,29.86,10.0,South,8.1,20.7,N/A,,Scattered Clouds,180,2012-11-26 06:53:00
1:53 AM,60.1,48.9,67,29.85,10.0,South,11.5,18.4,N/A,,Scattered Clouds,180,2012-11-26 07:53:00
2:53 AM,60.1,51.1,72,29.85,10.0,South,11.5,-,N/A,,Mostly Cloudy,180,2012-11-26 08:53:00
3:53 AM,59.0,51.1,75,29.85,10.0,South,9.2,-,N/A,,Clear,180,2012-11-26 09:53:00
4:53 AM,57.9,52.0,81,29.85,10.0,South,9.2,16.1,N/A,,Partly Cloudy,180,2012-11-26 10:53:00
5:53 AM,57.0,52.0,83,29.86,10.0,South,6.9,-,N/A,,Clear,170,2012-11-26 11:53:00
6:53 AM,57.0,53.1,87,29.89,10.0,South,5.8,-,N/A,,Partly Cloudy,170,2012-11-26 12:53:00
7:32 AM,57.2,53.6,88,29.91,10.0,SSE,5.8,-,N/A,,Mostly Cloudy,160,2012-11-26 13:32:00
7:53 AM,59.0,55.0,87,29.91,10.0,South,4.6,-,N/A,,Mostly Cloudy,180,2012-11-26 13:53:00
8:07 AM,60.8,55.4,82,29.93,10.0,South,5.8,-,N/A,,Overcast,180,2012-11-26 14:07:00
8:53 AM,61.0,55.9,83,29.93,10.0,South,6.9,-,N/A,,Overcast,180,2012-11-26 14:53:00
9:53 AM,63.0,55.9,78,29.96,10.0,SSW,6.9,-,N/A,,Overcast,210,2012-11-26 15:53:00
10:24 AM,62.6,55.4,77,29.98,10.0,SW,4.6,-,N/A,,Overcast,220,2012-11-26 16:24:00
10:53 AM,64.0,55.9,75,29.96,10.0,South,4.6,-,N/A,,Overcast,180,2012-11-26 16:53:00
11:18 AM,64.4,55.4,73,29.97,10.0,West,4.6,-,N/A,,Overcast,260,2012-11-26 17:18:00
11:53 AM,64.0,55.9,75,29.95,10.0,NW,5.8,-,N/A,,Overcast,320,2012-11-26 17:53:00
12:53 PM,59.0,50.0,72,29.97,10.0,North,17.3,-,N/A,,Overcast,350,2012-11-26 18:53:00
1:07 PM,57.2,46.4,67,29.98,10.0,NNW,17.3,-,N/A,,Overcast,340,2012-11-26 19:07:00
1:53 PM,50.0,41.0,71,30.01,10.0,NNW,16.1,25.3,N/A,,Overcast,340,2012-11-26 19:53:00
2:53 PM,48.0,39.9,74,30.06,9.0,North,15.0,-,N/A,,Overcast,350,2012-11-26 20:53:00
3:19 PM,46.4,37.4,71,30.08,10.0,North,17.3,25.3,N/A,,Overcast,350,2012-11-26 21:19:00
3:53 PM,45.0,36.0,71,30.11,10.0,North,17.3,28.8,N/A,,Overcast,360,2012-11-26 21:53:00
4:53 PM,46.0,35.1,66,30.15,10.0,North,19.6,27.6,N/A,,Overcast,10,2012-11-26 22:53:00
5:53 PM,45.0,33.1,63,30.18,10.0,North,16.1,23.0,N/A,,Overcast,10,2012-11-26 23:53:00
6:27 PM,44.6,32.0,61,30.21,10.0,North,17.3,25.3,N/A,,Overcast,10,2012-11-27 00:27:00
6:34 PM,46.4,33.8,62,30.22,10.0,North,16.1,-,N/A,,Overcast,10,2012-11-27 00:34:00
6:53 PM,46.0,33.1,61,30.23,10.0,NNE,13.8,20.7,N/A,,Overcast,20,2012-11-27 00:53:00
7:53 PM,46.9,33.1,59,30.25,10.0,NNE,16.1,26.5,N/A,,Overcast,30,2012-11-27 01:53:00
8:28 PM,46.4,32.0,57,30.26,10.0,North,18.4,25.3,N/A,,Overcast,10,2012-11-27 02:28:00
8:53 PM,46.0,30.0,54,30.26,10.0,North,15.0,-,N/A,,Overcast,10,2012-11-27 02:53:00
9:53 PM,42.1,27.0,55,30.29,10.0,North,13.8,-,N/A,,Partly Cloudy,10,2012-11-27 03:53:00
10:53 PM,41.0,27.0,57,30.29,10.0,North,18.4,25.3,N/A,,Partly Cloudy,10,2012-11-27 04:53:00
11:53 PM,39.9,27.0,60,30.32,10.0,NNE,11.5,20.7,N/A,,Scattered Clouds,20,2012-11-27 05:53:00